Location: Eagle Observatory
(42.5300°N, 88.2800°W)
Time: 04:30:15
(UTC-05:00)

Hubble Space Telescope - Visible Passes

Search period start: 29 July 2015 00:00
Search period end: 08 August 2015 00:00
Orbit: 542 x 545 km, 28.5° (Epoch: 28 July)

Date Brightness Start Highest point End Pass type
(mag) Time Alt. Az. Time Alt. Az. Time Alt. Az.
05 Aug 3.0 21:09:26 10° S 21:09:39 10° S 21:09:54 10° SSE visible
06 Aug 3.0 20:59:35 10° S 21:00:38 11° S 21:01:42 10° SSE visible
07 Aug 3.0 20:50:17 10° SSW 20:51:36 11° S 20:52:56 10° SSE visible
